• en Belgique
  • Liste des pays
  • À 7 jours
  • Température de l'eau
  • Carte satellitaire
  • Carte météo
  • Widgets météo
  • user-avatar
    Se connecter

    Météo par heure à Choumen

    Ce jour, 14 Novembre, Mercredi

    Heure Température Précipitation Vent Pression Humidité
    00:00 +6°C° 0 mm 1 m/s 740 mmHg 88%
    01:00 +5°C° 0 mm 1 m/s 739 mmHg 89%
    02:00 +5°C° 0 mm 1 m/s 739 mmHg 91%
    03:00 +5°C° 0 mm 1 m/s 739 mmHg 91%
    04:00 +5°C° 0 mm 1 m/s 738 mmHg 92%
    05:00 +4°C° 0 mm 1 m/s 738 mmHg 92%
    06:00 +5°C° 0 mm 1 m/s 738 mmHg 91%
    07:00 +5°C° 0 mm 1 m/s 737 mmHg 89%
    08:00 +5°C° 0 mm 1 m/s 737 mmHg 88%
    09:00 +7°C° 0 mm 1 m/s 737 mmHg 80%
    10:00 +8°C° 0 mm 1 m/s 737 mmHg 73%
    11:00 +9°C° 0 mm 1 m/s 737 mmHg 66%
    12:00 +10°C° 0 mm 1 m/s 737 mmHg 64%
    13:00 +11°C° 0 mm 1 m/s 737 mmHg 62%
    14:00 +11°C° 0 mm 1 m/s 736 mmHg 60%
    15:00 +11°C° 0 mm 1 m/s 736 mmHg 62%
    16:00 +11°C° 0 mm 1 m/s 736 mmHg 63%
    17:00 +10°C° 0 mm 1 m/s 736 mmHg 65%
    18:00 +10°C° 0 mm 1 m/s 736 mmHg 66%
    19:00 +10°C° 0 mm 1 m/s 736 mmHg 68%
    20:00 +9°C° 0 mm 1 m/s 736 mmHg 70%
    21:00 +9°C° 0.1 mm 1 m/s 736 mmHg 72%
    22:00 +9°C° 0.1 mm 1 m/s 736 mmHg 73%
    23:00 +9°C° 0.1 mm 1 m/s 735 mmHg 75%

    Demain, 15 Novembre, Jeudi

    Heure Température Précipitation Vent Pression Humidité
    00:00 +8°C° 0.2 mm 1 m/s 735 mmHg 76%
    01:00 +8°C° 0.2 mm 1 m/s 735 mmHg 78%
    02:00 +7°C° 0.2 mm 2 m/s 735 mmHg 80%
    03:00 +6°C° 1.2 mm 2 m/s 735 mmHg 82%
    04:00 +5°C° 1.2 mm 3 m/s 734 mmHg 85%
    05:00 +4°C° 1.2 mm 3 m/s 734 mmHg 88%
    06:00 +4°C° 0.9 mm 3 m/s 734 mmHg 87%
    07:00 +4°C° 0.9 mm 3 m/s 735 mmHg 87%
    08:00 +4°C° 0.9 mm 4 m/s 735 mmHg 86%
    09:00 +5°C° 0.1 mm 4 m/s 735 mmHg 82%
    10:00 +5°C° 0.1 mm 4 m/s 736 mmHg 78%
    11:00 +6°C° 0.1 mm 4 m/s 736 mmHg 73%
    12:00 +6°C° 0 mm 5 m/s 736 mmHg 71%
    13:00 +7°C° 0 mm 5 m/s 736 mmHg 69%
    14:00 +7°C° 0 mm 5 m/s 735 mmHg 67%
    15:00 +7°C° 0.1 mm 5 m/s 735 mmHg 70%
    16:00 +6°C° 0.1 mm 4 m/s 735 mmHg 73%
    17:00 +6°C° 0.1 mm 4 m/s 735 mmHg 76%
    18:00 +6°C° 0 mm 4 m/s 736 mmHg 78%
    19:00 +5°C° 0 mm 4 m/s 736 mmHg 80%
    20:00 +5°C° 0 mm 3 m/s 736 mmHg 83%
    21:00 +5°C° 0 mm 3 m/s 736 mmHg 84%
    22:00 +4°C° 0 mm 3 m/s 736 mmHg 86%
    23:00 +4°C° 0 mm 3 m/s 736 mmHg 88%

    Après-demain, 16 Novembre, Vendredi

    Heure Température Précipitation Vent Pression Humidité
    00:00 +3°C° 0 mm 3 m/s 737 mmHg 88%
    01:00 +3°C° 0 mm 3 m/s 737 mmHg 89%
    02:00 +3°C° 0 mm 4 m/s 737 mmHg 90%
    03:00 +1°C° 0 mm 4 m/s 737 mmHg 90%
    04:00 +1°C° 0 mm 4 m/s 737 mmHg 90%
    05:00 +1°C° 0 mm 4 m/s 737 mmHg 90%
    06:00 +1°C° 0 mm 5 m/s 737 mmHg 88%
    07:00 0°C° 0 mm 5 m/s 737 mmHg 85%
    08:00 0°C° 0 mm 5 m/s 738 mmHg 83%
    09:00 +1°C° 0.1 mm 6 m/s 738 mmHg 80%
    10:00 +1°C° 0.1 mm 6 m/s 738 mmHg 76%
    11:00 +1°C° 0.1 mm 6 m/s 738 mmHg 73%
    12:00 +1°C° 0.2 mm 6 m/s 738 mmHg 72%
    13:00 +2°C° 0.2 mm 6 m/s 738 mmHg 70%
    14:00 +2°C° 0.2 mm 6 m/s 738 mmHg 69%
    15:00 +2°C° 0.1 mm 6 m/s 738 mmHg 67%
    16:00 +2°C° 0.1 mm 5 m/s 738 mmHg 66%
    17:00 +1°C° 0.1 mm 5 m/s 738 mmHg 64%
    18:00 +1°C° 0.1 mm 5 m/s 739 mmHg 65%
    19:00 +1°C° 0.1 mm 5 m/s 739 mmHg 66%
    20:00 +1°C° 0.1 mm 5 m/s 739 mmHg 67%
    21:00 0°C° 0 mm 5 m/s 739 mmHg 68%
    22:00 0°C° 0 mm 5 m/s 739 mmHg 69%
    23:00 0°C° 0 mm 5 m/s 739 mmHg 69%

    17 Novembre, Samedi

    Heure Température Précipitation Vent Pression Humidité
    00:00 -1°C° 0 mm 5 m/s 739 mmHg 70%
    01:00 -1°C° 0 mm 5 m/s 739 mmHg 71%
    02:00 -1°C° 0 mm 5 m/s 739 mmHg 71%
    03:00 -1°C° 0 mm 5 m/s 739 mmHg 72%
    04:00 -2°C° 0 mm 5 m/s 739 mmHg 73%
    05:00 -2°C° 0 mm 5 m/s 739 mmHg 74%
    06:00 -2°C° 0 mm 5 m/s 740 mmHg 74%
    07:00 -2°C° 0 mm 5 m/s 740 mmHg 73%
    08:00 -2°C° 0 mm 5 m/s 740 mmHg 73%
    09:00 -2°C° 0 mm 5 m/s 740 mmHg 71%
    10:00 -1°C° 0 mm 5 m/s 740 mmHg 68%
    11:00 0°C° 0 mm 5 m/s 741 mmHg 66%
    12:00 0°C° 0 mm 5 m/s 740 mmHg 66%
    13:00 0°C° 0 mm 5 m/s 740 mmHg 65%
    14:00 0°C° 0 mm 4 m/s 740 mmHg 65%
    15:00 0°C° 0 mm 4 m/s 740 mmHg 66%
    16:00 0°C° 0 mm 4 m/s 740 mmHg 67%
    17:00 0°C° 0 mm 4 m/s 740 mmHg 67%
    18:00 0°C° 0 mm 3 m/s 741 mmHg 68%
    19:00 0°C° 0 mm 3 m/s 741 mmHg 68%
    20:00 -1°C° 0 mm 3 m/s 741 mmHg 69%
    21:00 -1°C° 0 mm 3 m/s 741 mmHg 68%
    22:00 -1°C° 0 mm 2 m/s 741 mmHg 68%
    23:00 -1°C° 0 mm 2 m/s 741 mmHg 67%

    18 Novembre, Dimanche

    Heure Température Précipitation Vent Pression Humidité
    00:00 -2°C° 0 mm 2 m/s 741 mmHg 68%
    01:00 -2°C° 0 mm 2 m/s 741 mmHg 69%
    02:00 -2°C° 0 mm 2 m/s 740 mmHg 69%
    03:00 -3°C° 0 mm 2 m/s 740 mmHg 70%
    04:00 -3°C° 0 mm 2 m/s 740 mmHg 70%
    05:00 -3°C° 0 mm 2 m/s 740 mmHg 71%
    06:00 -3°C° 0 mm 2 m/s 740 mmHg 70%
    07:00 -3°C° 0 mm 2 m/s 740 mmHg 69%
    08:00 -3°C° 0 mm 2 m/s 740 mmHg 69%
    09:00 -1°C° 0 mm 2 m/s 740 mmHg 62%
    10:00 +1°C° 0 mm 2 m/s 740 mmHg 55%
    11:00 +2°C° 0 mm 2 m/s 740 mmHg 49%
    12:00 +3°C° 0 mm 2 m/s 739 mmHg 47%
    13:00 +4°C° 0 mm 2 m/s 738 mmHg 45%
    14:00 +5°C° 0 mm 2 m/s 738 mmHg 43%
    15:00 +4°C° 0 mm 2 m/s 737 mmHg 46%
    16:00 +3°C° 0 mm 2 m/s 737 mmHg 49%
    17:00 +3°C° 0 mm 1 m/s 736 mmHg 52%
    18:00 +2°C° 0 mm 1 m/s 736 mmHg 54%
    19:00 +2°C° 0 mm 1 m/s 735 mmHg 55%
    20:00 +1°C° 0 mm 1 m/s 735 mmHg 56%
    21:00 0°C° 0 mm 0 m/s 734 mmHg 56%
    22:00 0°C° 0 mm 0 m/s 734 mmHg 56%
    23:00 0°C° 0 mm 0 m/s 733 mmHg 57%

    19 Novembre, Lundi

    Heure Température Précipitation Vent Pression Humidité
    00:00 -1°C° 0 mm 0 m/s 733 mmHg 57%
    01:00 -1°C° 0 mm 0 m/s 732 mmHg 57%
    02:00 -1°C° 0 mm 0 m/s 732 mmHg 57%
    03:00 -1°C° 0 mm 0 m/s 731 mmHg 57%
    04:00 -1°C° 0 mm 0 m/s 731 mmHg 56%
    05:00 -1°C° 0 mm 0 m/s 730 mmHg 56%
    06:00 -1°C° 0 mm 0 m/s 730 mmHg 55%
    07:00 0°C° 0 mm 1 m/s 730 mmHg 54%
    08:00 +1°C° 0 mm 1 m/s 730 mmHg 54%
    09:00 +2°C° 0 mm 1 m/s 730 mmHg 49%
    10:00 +4°C° 0 mm 1 m/s 730 mmHg 45%
    11:00 +5°C° 0 mm 1 m/s 730 mmHg 41%
    12:00 +5°C° 0 mm 2 m/s 730 mmHg 42%
    13:00 +5°C° 0 mm 2 m/s 729 mmHg 44%
    14:00 +5°C° 0 mm 2 m/s 729 mmHg 45%
    15:00 +5°C° 0.1 mm 2 m/s 729 mmHg 50%
    16:00 +4°C° 0.1 mm 2 m/s 729 mmHg 54%
    17:00 +4°C° 0.1 mm 2 m/s 728 mmHg 59%
    18:00 +4°C° 0.3 mm 2 m/s 728 mmHg 64%
    19:00 +3°C° 0.3 mm 2 m/s 728 mmHg 68%
    20:00 +3°C° 0.3 mm 2 m/s 728 mmHg 73%
    21:00 +3°C° 0.5 mm 2 m/s 728 mmHg 76%
    22:00 +3°C° 0.5 mm 2 m/s 728 mmHg 80%
    23:00 +3°C° 0.5 mm 2 m/s 728 mmHg 83%
    Voir plus